STARLINK-30241, 57298

Orbit data source: Space-Track

STARLINK-30241, 57298 is a payload satellite owned by SpaceX/Seattle (US) in LEO that was launched on Mon, 10 Jul 2023 UTC via an FALCON 9 launch vehicle from the Air Force Eastern Test Range (AFETR). Payload-class satellites include a variety of spacecraft equipped with specific instruments for various scientific and technological missions. These include communications satellites like Starlink; space stations such as the ISS; scientific satellites like the Hubble; Earth observation satellites from companies like Planet Labs, Umbra, and HawkEye 360; GPS; miniature CubeSats for education and research; and military/defense satellites.

Loading next visibility...
Identifier
57298, 2023-096J
Orbit
LEO
Country
Flag of USUS
Related business
Manufacturer
SpaceX/Seattle
Mission
Partially operational Commercial Communications
Bus & Motor
STARLINK V2M, Unknown motor
Mass
730 kg wet, ~700 kg dry
Launch date (UTC)
2023-07-10 (2 years ago)
Launch vehicle
FALCON 9
Launch site
Air Force Eastern Test Range (AFETR)
Object type
Payload
Rocket body
Debris
Shape & HBR
Box + 2 Pan, 14.5 m
Radar Cross Section
33.884 m², Large (>1 m²)

Expand to show TLE details & history
Last TLE update: 21 hours ago

TLE from 21 hours ago
0 STARLINK-30241
1 57298U 23096J   25241.17605372  .00082099  00000-0  36927-2 0  9993
2 57298  42.9959 174.3164 0017059 166.0906 194.0416 15.20029735118837
Epoch: 2025-08-29T04:13Z
TLE epoch observation values (Epoch: 2025-08-29T04:13:31.041Z)
Latitude
0.00001°
Longitude
133.30861°
Altitude
516.918 km
Speed
7.601 km/s
True Right ascension
11h 37m 15s
True Declination
0° 00' 00"
Sunlit
Object was in daylight at epoch
Visualization orbit readout
Latitude
Unknown
Longitude
Unknown
Altitude
Unknown
Speed
Unknown
Apparent Right ascension
Unknown
Apparent Declination
Unknown
Sunlit
N/A
Visualization observer readout
Local Sidereal Time
17:08:04
Azimuth
Unknown
Elevation
Unknown
Doppler factor
Unknown
Orbital elements
Apogee altitude
519.437 km
Perigee altitude
495.944 km
Semi-major axis
6,885.827 km
Eccentricity
0.00171
Inclination
42.9959°
RAAN
174.3164°
Arg. of periapsis
166.0906°
True anomaly
193.99427°
Mean anomaly
194.0416°
Eccentric anomaly
194.01792°
Mean motion
3.79847 °/min
Orbital period
94.77 mins
BSTAR
0.0036927
Loading maneuver chart data...
Computing Atmospheric mass density...
Loading historical data...
Loading historical data...
Loading historical data...
Loading historical data...
Loading historical data...
Loading historical data...
Loading historical data...

Documentation

Showing up to 5 results
|